Location: Newark
(34.1333°N, 7.9667°W)
Time: 01:23:34
(UTC+00:00)

Altair - Visible Passes

Search period start: 04 December 2021 00:00
Search period end: 14 December 2021 00:00
Orbit: 1502 x 1682 km, 47.2° (Epoch: 03 December)

Date Brightness Start Highest point End Pass type
(mag) Time Alt. Az. Time Alt. Az. Time Alt. Az.
04 Dec 8.0 19:28:25 10° WNW 19:36:55 37° N 19:38:43 35° NNE visible
04 Dec 9.0 21:33:45 10° NW 21:36:44 24° NW 21:36:44 24° NW visible
05 Dec 8.1 19:03:07 10° WNW 19:11:36 37° N 19:14:58 29° NE visible
05 Dec 8.6 21:08:34 10° NW 21:12:59 32° NW 21:12:59 32° NW visible
06 Dec 8.1 18:37:47 10° WNW 18:46:16 36° N 18:51:15 22° NE visible
06 Dec 8.1 20:43:22 10° NW 20:49:17 42° NNW 20:49:17 42° NNW visible
07 Dec 8.2 18:12:27 10° WNW 18:20:56 36° N 18:27:35 16° ENE visible
07 Dec 7.7 20:18:11 10° NW 20:25:37 52° N 20:25:37 52° N visible
07 Dec 9.6 22:23:08 10° WNW 22:23:39 12° WNW 22:23:39 12° WNW visible
08 Dec 8.2 17:47:05 10° WNW 17:55:36 36° N 18:03:55 10° ENE visible
08 Dec 7.5 19:52:59 10° NW 20:02:00 55° NNE 20:02:00 55° NNE visible
08 Dec 9.3 21:57:54 10° WNW 22:00:02 19° WNW 22:00:02 19° WNW visible
09 Dec 7.5 19:27:46 10° NW 19:36:48 52° NNE 19:38:27 47° NE visible
09 Dec 8.8 21:32:40 10° WNW 21:36:30 28° WNW 21:36:30 28° WNW visible
10 Dec 7.7 19:02:33 10° NW 19:11:32 49° NNE 19:15:00 35° ENE visible
10 Dec 8.3 21:07:27 10° WNW 21:13:03 41° WNW 21:13:03 41° WNW visible
11 Dec 7.7 18:37:19 10° NW 18:46:16 47° NNE 18:51:38 24° E visible
11 Dec 7.7 20:42:14 10° WNW 20:49:42 60° W 20:49:42 60° W visible
12 Dec 7.8 18:12:04 10° NW 18:20:59 45° NNE 18:28:23 15° E visible
12 Dec 7.3 20:17:02 10° NW 20:26:17 79° SW 20:26:28 79° SSW visible
12 Dec 9.6 22:23:42 10° W 22:24:32 12° W 22:24:32 12° W visible
13 Dec 7.9 17:46:49 10° NW 17:55:42 43° NNE 18:04:21 10° E visible
13 Dec 7.3 19:51:50 10° NW 20:01:09 85° SW 20:03:23 58° SE visible
13 Dec 9.3 21:58:10 10° WNW 22:01:28 19° W 22:01:28 19° W visible
